x

Scilly St Marys (03803) Weather Station

1:00pm - Mon 8th Feb 2016 All times are GMT.

  • Wind
    45mph, 66mph gusts
  • Air Temp 50°f
  • Sea Pressure 997mb
  • Scilly St Marys
  • Scilly St Marys

More Historic Weather Station data

Upgrade to MSW Pro to gain access to the past 30 days of data for over 8000 Wavebouys and Weather Stations around the globe.

Join Pro

Comparision Forecast

View Surf forecast
   
Mon 02/08 1:00pm 45 66 mph 997mb 50f
12:00pm 43 66 mph 996mb 49f
11:00am 45 64 mph 994mb 48f
10:00am 46 69 mph 993mb 47f
9:00am 43 81 mph 992mb 48f
8:00am 49 78 mph 991mb 47f
7:00am 47 70 mph 990mb 47f
6:00am 45 71 mph 989mb 47f
5:00am 39 70 mph 989mb 47f
4:00am 44 74 mph 989mb 44f
3:00am 45 79 mph 989mb 46f
2:00am 45 64 mph 988mb 49f
1:00am 38 66 mph 989mb 48f
12:00am 38 61 mph 989mb 50f
Sun 02/07 11:00pm 43 67 mph 989mb 50f
10:00pm 37 62 mph 989mb 52f
9:00pm 41 68 mph 989mb 51f
8:00pm 38 53 mph 988mb 52f
7:00pm 38 51 mph 989mb 51f
6:00pm 36 60 mph 990mb 51f
4:00pm 39 52 mph 992mb 50f
3:00pm 37 47 mph 994mb 48f
2:00pm 33 45 mph 996mb 47f
1:00pm 32 44 mph 997mb 47f
12:00pm 31 40 mph 997mb 47f
11:00am 25 39 mph 998mb 47f
10:00am 28 43 mph 998mb 46f
9:00am 29 44 mph 997mb 47f
8:00am 24 44 mph 996mb 46f
7:00am 23 45 mph 995mb 45f
6:00am 28 45 mph 995mb 44f
5:00am 31 43 mph 994mb 46f
4:00am 31 44 mph 993mb 46f
3:00am 29 45 mph 992mb 45f
2:00am 29 46 mph 992mb 41f
1:00am 31 43 mph 991mb 45f
Sat 02/06 11:00pm 30 41 mph 990mb 45f
10:00pm 29 40 mph 990mb 45f
9:00pm 29 44 mph 989mb 46f
8:00pm 28 40 mph 988mb 47f
6:00pm 23 34 mph 987mb 47f
5:00pm 18 29 mph 985mb 47f
4:00pm 22 37 mph 985mb 46f
2:00pm 30 59 mph 985mb 48f
1:00pm 43 53 mph 985mb 51f
12:00pm 40 51 mph 987mb 51f
11:00am 36 51 mph 989mb 51f
10:00am 37 48 mph 990mb 50f
9:00am 25 46 mph 992mb 50f
7:00am 21 34 mph 993mb 50f
6:00am 28 40 mph 996mb 50f
5:00am 29 40 mph 999mb 50f
4:00am 26 39 mph 1000mb 50f
3:00am 25 30 mph 1002mb 49f
2:00am 22
mph
1003mb 48f
1:00am 15
mph
1005mb 48f
Fri 02/05 11:00pm 13
mph
1008mb 48f
10:00pm 10
mph
1008mb 47f
8:00pm 15 43 mph 1009mb 48f
7:00pm 29 41 mph 1009mb 50f
6:00pm 29 43 mph 1009mb 50f
5:00pm 36 46 mph 1010mb 49f
4:00pm 32 47 mph 1010mb 52f
3:00pm 31 45 mph 1011mb 52f
2:00pm 29 43 mph 1012mb 51f
1:00pm 30 40 mph 1014mb 52f
12:00pm 31 44 mph 1016mb 52f
11:00am 36 46 mph 1017mb 52f
10:00am 30 40 mph 1018mb 51f
9:00am 24 40 mph 1018mb 52f
8:00am 29 39 mph 1019mb 52f
7:00am 23 33 mph 1020mb 52f
6:00am 24 33 mph 1021mb 51f
4:00am 24 33 mph 1022mb 51f
3:00am 19
mph
1024mb 51f
2:00am 22 29 mph 1025mb 51f
1:00am 19
mph
1026mb 51f
12:00am 16
mph
1027mb 51f
Thu 02/04 11:00pm 17
mph
1028mb 51f
10:00pm 15
mph
1028mb 51f
8:00pm 15
mph
1029mb 51f
7:00pm 14
mph
1030mb 51f
5:00pm 15
mph
1030mb 52f
3:00pm 14
mph
1030mb 52f
2:00pm 16
mph
1031mb 53f